Date String (YYYY-MM-DD hh:mm:ss) UTC,Instrument flags,Ambient pressure (hPa),Sample flow (lpm),Bypass flow (lpm),Sample temperature (°C),Ambient temperature (°C),ASC tube jacket temperature (°C),LED temperature (°C),Box temperature (°C),Sample RH (%),Span deviation,Mass concentration (μg/m³),Mass concentration (μg/m³),Mass concentration (μg/m³)
DateTimeUTC,F1_M11,P_M11,Q1_M11,Q2_M11,T1_M11,T2_M11,T3_M11,T4_M11,T5_M11,U1_M11,ZSPAN_M11,X0_M11,X2_M11,X1_M11
2021-09-18 17:00:00,,0830.6,5.00,0.00,30.0,27.7,00.0,39.2,31.5,20.5,-000.1,0023.91,0008.39,0006.57
2021-09-18 17:01:00,,0830.6,5.00,0.00,30.0,28.0,00.0,39.1,31.6,20.0,-000.3,0023.09,0008.36,0006.57
2021-09-18 17:02:00,,0830.6,5.00,0.00,30.0,28.3,00.0,39.1,31.7,19.9,-000.4,0022.71,0008.36,0006.56
2021-09-18 17:03:00,,0830.6,5.01,0.00,30.0,28.5,00.0,39.1,31.7,20.3,-000.6,0022.19,0008.36,0006.54
2021-09-18 17:04:00,,0830.6,4.99,0.00,30.0,28.7,00.0,39.1,31.8,20.6,-000.6,0022.22,0008.30,0006.52
2021-09-18 17:05:00,,0830.6,5.01,0.00,30.1,28.9,00.0,39.1,31.8,20.6,-000.7,0021.80,0008.14,0006.51
2021-09-18 17:06:00,,0830.6,5.00,0.00,30.1,29.0,00.0,39.1,31.9,20.5,-000.6,0020.11,0008.09,0006.52
2021-09-18 17:07:00,,0830.5,4.99,0.00,30.1,29.1,00.0,39.1,31.9,20.7,-000.3,0019.71,0008.10,0006.54
2021-09-18 17:08:00,,0830.5,5.01,0.00,30.2,29.2,00.0,39.1,32.0,20.5,0001.0,0021.19,0008.14,0006.56
2021-09-18 17:09:00,,0830.5,4.99,0.00,30.2,29.3,00.0,39.2,32.0,20.6,0002.2,0021.58,0008.16,0006.58
2021-09-18 17:10:00,,0830.5,5.01,0.00,30.2,28.8,00.0,39.2,31.9,20.6,0002.9,0021.97,0008.25,0006.61
2021-09-18 17:11:00,,0830.5,4.99,0.00,30.1,27.1,00.0,39.2,31.4,20.4,0003.2,0021.56,0008.31,0006.63
2021-09-18 17:12:00,,0830.5,5.00,0.00,29.9,26.5,00.0,39.1,31.2,20.4,0003.4,0021.56,0008.40,0006.64
2021-09-18 17:13:00,,0830.4,5.01,0.00,29.9,26.9,00.0,39.1,31.3,20.5,0003.1,0021.95,0008.44,0006.67
2021-09-18 17:14:00,,0830.4,5.01,0.00,29.8,27.3,00.0,39.1,31.4,20.7,0002.7,0022.95,0008.46,0006.70
2021-09-18 17:15:00,,0830.4,4.99,0.00,29.8,27.7,00.0,39.0,31.5,20.9,0002.9,0022.79,0008.56,0006.75
2021-09-18 17:16:00,,0830.4,5.01,0.00,29.9,28.0,00.0,39.0,31.5,20.8,0002.7,0023.48,0008.67,0006.79
2021-09-18 17:17:00,,0830.4,4.99,0.00,29.9,28.3,00.0,39.0,31.6,20.4,0002.2,0024.85,0008.66,0006.80
2021-09-18 17:18:00,,0830.4,5.01,0.00,29.9,28.5,00.0,39.0,31.7,20.2,0001.9,0025.14,0008.60,0006.80
2021-09-18 17:19:00,,0830.4,4.99,0.00,29.9,28.7,00.0,39.0,31.7,20.2,0001.4,0023.69,0008.58,0006.83
2021-09-18 17:20:00,,0830.4,5.00,0.00,30.0,28.9,00.0,39.0,31.7,20.0,0000.8,0023.98,0008.56,0006.84
2021-09-18 17:21:00,,0830.4,5.02,0.00,30.0,29.0,00.0,39.0,31.8,20.3,0000.8,0024.47,0008.55,0006.85
2021-09-18 17:22:00,,0830.4,4.99,0.00,30.1,29.1,00.0,39.0,31.9,20.1,0001.2,0025.49,0008.55,0006.86
2021-09-18 17:23:00,,0830.4,5.00,0.00,30.1,29.0,00.0,39.1,31.9,19.2,0001.3,0025.88,0008.53,0006.87
2021-09-18 17:24:00,,0830.4,4.99,0.00,30.0,27.4,00.0,39.0,31.4,19.3,0001.4,0024.61,0008.47,0006.86
2021-09-18 17:25:00,,0830.3,5.00,0.00,29.8,26.3,00.0,39.0,31.1,19.0,0002.1,0023.41,0008.47,0006.85
2021-09-18 17:26:00,,0830.3,5.01,0.00,29.8,26.6,00.0,39.0,31.2,18.5,0002.0,0025.09,0008.37,0006.81
2021-09-18 17:27:00,,0830.3,5.01,0.00,29.7,27.0,00.0,39.0,31.3,18.4,0002.1,0024.18,0008.32,0006.78
2021-09-18 17:28:00,,0830.3,5.00,0.00,29.7,27.4,00.0,38.9,31.3,16.9,0002.1,0022.59,0008.25,0006.75
2021-09-18 17:29:00,,0830.4,4.99,0.00,29.7,27.8,00.0,38.9,31.4,15.5,0002.0,0021.89,0008.17,0006.69
2021-09-18 17:30:00,,0830.3,5.00,0.00,29.8,28.1,00.0,38.9,31.5,15.9,0002.0,0022.18,0008.12,0006.64
2021-09-18 17:31:00,,0830.3,4.99,0.00,29.8,28.4,00.0,38.9,31.5,16.2,0002.1,0020.76,0008.02,0006.59
2021-09-18 17:32:00,,0830.4,5.01,0.00,29.8,28.6,00.0,38.9,31.6,16.0,0001.6,0020.45,0007.87,0006.54
2021-09-18 17:33:00,,0830.3,5.00,0.00,29.9,28.7,00.0,38.9,31.7,15.1,0001.7,0019.07,0007.74,0006.48
2021-09-18 17:34:00,,0830.4,5.01,0.00,29.9,28.9,00.0,38.9,31.7,15.1,0001.8,0018.29,0007.64,0006.44
2021-09-18 17:35:00,,0830.3,5.00,0.00,29.9,29.0,00.0,38.9,31.8,15.4,0001.8,0018.03,0007.61,0006.40
2021-09-18 17:36:00,,0830.4,4.99,0.00,30.0,29.1,00.0,38.9,31.8,15.2,0001.3,0017.38,0007.53,0006.37
2021-09-18 17:37:00,,0830.3,5.01,0.00,30.0,29.2,00.0,38.9,31.9,15.3,0001.0,0015.74,0007.48,0006.35
2021-09-18 17:38:00,,0830.3,4.99,0.00,30.0,28.2,00.0,39.0,31.6,15.4,0001.1,0015.94,0007.38,0006.30
2021-09-18 17:39:00,,0830.2,5.00,0.00,29.9,26.5,00.0,38.9,31.2,15.2,0001.0,0016.18,0007.39,0006.27
2021-09-18 17:40:00,,0830.2,5.00,0.00,29.7,26.4,00.0,38.9,31.1,14.6,0000.9,0015.45,0007.40,0006.27
2021-09-18 17:41:00,,0830.2,5.01,0.00,29.7,26.9,00.0,38.9,31.2,13.8,0001.2,0015.08,0007.35,0006.25
2021-09-18 17:42:00,,0830.2,5.00,0.00,29.7,27.3,00.0,38.9,31.3,14.2,0001.6,0015.28,0007.35,0006.22
2021-09-18 17:43:00,,0830.1,5.00,0.00,29.7,27.7,00.0,38.8,31.3,14.6,0001.9,0015.97,0007.34,0006.18
2021-09-18 17:44:00,,0830.1,4.99,0.00,29.7,28.0,00.0,38.8,31.4,15.1,0001.4,0017.99,0007.32,0006.15
2021-09-18 17:45:00,,0830.1,5.00,0.00,29.7,28.3,00.0,38.8,31.5,14.6,0001.3,0018.70,0007.27,0006.12
2021-09-18 17:46:00,,0830.1,5.00,0.00,29.8,28.5,00.0,38.8,31.6,14.9,0001.4,0018.73,0007.17,0006.10
2021-09-18 17:47:00,,0830.1,5.00,0.00,29.8,28.7,00.0,38.8,31.6,15.1,0001.5,0018.56,0007.11,0006.06
2021-09-18 17:48:00,,0830.1,5.01,0.00,29.9,28.8,00.0,38.8,31.7,14.7,0001.9,0018.15,0007.13,0006.04
2021-09-18 17:49:00,,0830.2,5.00,0.00,29.9,29.0,00.0,38.9,31.8,14.5,0001.6,0017.53,0007.10,0006.03
2021-09-18 17:50:00,,0830.1,4.99,0.00,29.9,29.1,00.0,38.9,31.8,14.6,0002.0,0017.31,0007.07,0006.03
2021-09-18 17:51:00,,0830.1,5.01,0.00,30.0,28.7,00.0,38.9,31.7,14.5,0001.8,0017.69,0007.05,0006.02
2021-09-18 17:52:00,,0830.1,4.99,0.00,29.9,27.0,00.0,38.9,31.3,14.2,0001.5,0018.81,0007.03,0006.02
2021-09-18 17:53:00,,0830.0,5.00,0.00,29.7,26.4,00.0,38.9,31.1,14.3,0000.6,0019.62,0007.04,0006.02
2021-09-18 17:54:00,,0829.9,5.01,0.00,29.7,26.8,00.0,38.9,31.1,13.7,0000.6,0018.58,0007.04,0006.03
2021-09-18 17:55:00,,0829.9,4.99,0.00,29.6,27.2,00.0,38.8,31.2,14.0,0000.6,0017.51,0007.07,0006.03
2021-09-18 17:56:00,,0829.9,4.99,0.00,29.6,27.6,00.0,38.8,31.3,14.5,0000.3,0017.67,0007.10,0006.02
2021-09-18 17:57:00,,0830.0,5.00,0.00,29.7,27.9,00.0,38.8,31.4,12.9,-000.1,0017.85,0007.13,0006.01
2021-09-18 17:58:00,,0829.9,4.99,0.00,29.7,28.2,00.0,38.8,31.4,12.2,-000.3,0018.01,0007.11,0005.99
2021-09-18 17:59:00,,0829.9,5.01,0.00,29.7,28.4,00.0,38.8,31.5,12.2,-000.5,0018.06,0007.02,0005.94
